This is the latest recevied weather packets stored in our database for station/object K4GSL. If no packets are shown the sender has not sent any weather packets the latest 10 day(s).
| Time | Temp. | Humidity | Pressure | Rain* | Wind** | Luminosity | Snow |
|---|---|---|---|---|---|---|---|
| 1777594711 | 25.56° C | 47% | 1018.5 hPa | 0 mm | - | 224 W/m² | - |
| 1777594407 | 25° C | 48% | 1018.5 hPa | 0 mm | - | 315 W/m² | - |
| 1777594103 | 25° C | 47% | 1018.3 hPa | 0 mm | - | 344 W/m² | - |
| 1777593799 | 25.56° C | 46% | 1018.6 hPa | 0 mm | - | 372 W/m² | - |
| 1777593496 | 25.56° C | 46% | 1018.7 hPa | 0 mm | - | 400 W/m² | - |
| 1777593195 | 25° C | 47% | 1018.9 hPa | 0 mm | - | 429 W/m² | - |
| 1777592894 | 25° C | 46% | 1018.7 hPa | 0 mm | - | 444 W/m² | - |
| 1777592590 | 25° C | 47% | 1018.8 hPa | 0 mm | - | 475 W/m² | - |
| 1777592286 | 25° C | 45% | 1019 hPa | 0 mm | - | 515 W/m² | - |
| 1777591982 | 25° C | 46% | 1019 hPa | 0 mm | - | 537 W/m² | - |
| 1777591678 | 25° C | 44% | 1019.1 hPa | 0 mm | - | 555 W/m² | - |
| 1777591375 | 25° C | 44% | 1019.3 hPa | 0 mm | - | 575 W/m² | - |
| 1777591070 | 24.44° C | 43% | 1019.2 hPa | 0 mm | - | 111 W/m² | - |
| 1777590767 | 24.44° C | 45% | 1019.3 hPa | 0 mm | - | 265 W/m² | - |
| 1777590462 | 25° C | 44% | 1019.2 hPa | 0 mm | - | 632 W/m² | - |
| 1777590159 | 24.44° C | 44% | 1019.5 hPa | 0 mm | - | 319 W/m² | - |
| 1777589856 | 24.44° C | 45% | 1019.5 hPa | 0 mm | - | 666 W/m² | - |
| 1777589551 | 24.44° C | 44% | 1019.6 hPa | 0 mm | - | 529 W/m² | - |
| 1777589250 | 25° C | 42% | 1019.8 hPa | 0 mm | - | 702 W/m² | - |
| 1777588947 | 24.44° C | 43% | 1019.6 hPa | 0 mm | - | 689 W/m² | - |
| 1777588643 | 23.89° C | 43% | 1019.7 hPa | 0 mm | - | 98 W/m² | - |
| 1777588338 | 23.89° C | 42% | 1019.8 hPa | 0 mm | - | 460 W/m² | - |
| 1777588035 | 24.44° C | 43% | 1019.7 hPa | 0 mm | - | 221 W/m² | - |
| 1777587731 | 24.44° C | 47% | 1019.7 hPa | 0 mm | - | 104 W/m² | - |
| 1777587430 | 24.44° C | 51% | 1019.9 hPa | 0 mm | - | 110 W/m² | - |
* Rain latest hour (hover to see other rain measurements)
** Current wind speed in m/s (hover to see current wind gust speed)